Theta_e
305 304 302 301 300 299 298 297 297 297 297 297 298 298 299 299 299 300 299 299 299 299 300 300 300 301 301 302 302 304 303 301 301 301 301 302 304 303 302 302 302 304 305 304 305 307 306 305 304 304 307 307 306 309 308 307 308 316 319 312 313 313 313 313 313 314 311 309 305 303 304 305 306 305 304 303 302 302 302 302 303 302 302 302 302 301 301 301
305 305 302 299 298 297 297 297 297 297 297 297 298 298 298 299 299 299 299 299 299 299 300 300 300 302 301 302 302 303 304 302 300 300 300 301 301 301 302 302 303 305 305 305 305 305 307 306 303 303 308 307 305 307 309 308 309 316 316 311 313 313 310 309 308 309 309 307 303 301 301 302 303 304 303 302 301 301 301 301 301 301 301 301 301 301 300 300
303 303 301 299 297 297 297 297 297 297 297 297 298 298 298 299 299 299 299 299 299 299 300 300 300 302 302 301 301 302 303 302 299 300 300 301 301 301 301 302 303 305 305 305 305 304 306 305 302 303 306 305 305 306 306 307 309 312 311 312 313 311 308 305 304 306 308 306 302 301 300 300 300 301 302 301 300 300 300 300 300 300 300 300 300 300 299 299
300 299 298 298 298 297 298 297 297 297 297 298 298 298 298 299 299 299 299 299 299 299 300 300 300 302 302 302 302 302 303 302 299 299 300 300 301 301 301 302 303 305 306 305 305 304 304 303 302 304 306 306 306 305 304 305 309 309 307 309 310 309 306 303 303 304 305 305 302 301 301 300 299 299 301 301 300 300 299 300 300 299 299 299 299 299 299 298
297 298 298 298 298 298 298 298 298 298 297 298 298 298 298 298 299 299 299 299 299 299 300 300 300 301 301 302 302 301 303 304 300 299 300 300 300 301 301 302 303 305 305 305 305 304 304 303 303 308 306 305 306 305 304 304 307 306 303 304 305 306 304 301 303 303 303 302 301 301 300 300 299 299 299 299 299 299 299 299 299 299 298 298 298 298 298 297
297 297 298 298 298 299 298 298 298 298 298 298 298 298 298 299 299 299 299 299 299 299 299 300 300 301 301 301 301 301 303 303 300 299 300 300 300 301 301 302 303 305 305 305 305 304 306 304 304 311 309 303 304 304 303 303 304 304 302 301 301 302 302 301 302 301 301 300 300 300 299 299 299 298 298 298 299 299 299 299 299 299 298 298 297 297 297 297
297 298 298 299 299 299 299 298 298 298 298 298 298 298 298 299 299 299 299 299 299 299 299 299 300 301 302 302 301 300 302 300 299 300 300 300 300 301 301 302 303 304 305 304 305 306 307 307 306 310 308 304 305 304 302 302 302 303 302 302 300 300 300 300 301 300 299 299 299 299 298 299 298 298 298 298 298 298 299 299 299 298 298 297 297 297 296 296
297 298 298 299 299 299 299 299 298 298 299 298 298 298 299 299 299 299 299 299 299 299 299 299 299 300 302 303 301 301 300 299 299 299 300 301 300 301 302 302 302 303 302 300 302 305 307 309 309 309 307 305 306 305 304 303 302 303 302 302 301 301 300 299 299 299 299 299 298 298 298 298 298 298 297 297 298 298 299 298 298 298 297 296 296 296 296 296
297 298 298 299 298 298 299 299 299 299 299 298 298 298 299 299 299 299 299 300 299 299 299 300 300 300 301 301 301 301 299 298 299 299 300 301 300 301 301 301 301 302 301 300 301 303 307 310 309 308 305 304 305 304 305 304 302 303 301 301 301 300 301 300 299 299 299 298 298 297 297 297 298 298 297 296 297 297 298 298 297 297 296 296 295 295 295 295
297 297 298 298 298 299 298 299 299 299 299 299 298 298 299 299 299 299 300 300 300 299 299 300 300 300 300 300 301 301 299 298 299 299 300 301 300 300 300 300 300 301 300 300 300 300 304 308 307 305 305 304 303 302 304 303 303 303 301 300 300 300 300 299 299 300 299 298 298 298 297 296 297 298 297 296 296 297 297 297 297 296 296 295 295 295 295 295
297 297 298 298 298 299 298 299 299 299 299 298 299 298 299 299 299 300 300 300 300 299 299 299 300 300 299 299 300 301 299 299 299 299 300 300 301 300 299 299 299 300 299 299 299 298 300 303 303 305 306 304 303 302 302 302 303 303 302 301 300 300 299 298 300 301 300 300 298 298 297 296 296 297 296 296 296 296 296 296 296 296 295 295 295 295 294 294
297 297 298 298 298 299 298 299 299 299 299 299 299 299 299 299 299 300 300 300 300 300 299 299 300 300 299 298 299 299 298 299 299 299 300 300 300 300 299 298 298 299 299 299 299 299 300 301 303 305 305 304 304 304 302 302 303 302 303 304 302 300 299 298 299 299 300 299 298 299 300 297 295 296 295 296 297 296 296 295 295 295 295 295 294 294 294 294
296 296 298 298 298 299 299 299 299 299 299 299 299 299 299 299 299 300 300 300 300 300 299 299 299 300 301 300 298 298 298 299 298 300 300 299 300 300 300 299 298 299 299 299 299 299 300 301 301 301 302 304 304 302 300 302 303 303 303 305 306 303 300 299 297 298 299 298 297 300 302 297 295 296 296 296 297 297 296 295 295 295 294 294 294 294 294 293
295 296 297 298 298 299 299 299 299 299 299 299 299 299 299 299 300 300 300 301 300 301 300 299 300 299 301 300 299 298 298 299 299 300 300 300 300 299 299 299 298 298 299 300 299 300 300 301 301 299 300 301 301 301 303 303 303 304 304 305 308 305 302 301 297 297 300 299 297 299 299 296 296 296 296 297 297 296 295 295 295 295 295 294 294 294 293 293
295 295 296 297 298 298 299 299 299 299 299 300 300 300 299 299 300 300 300 301 301 301 300 300 300 300 302 300 298 299 298 299 299 298 299 300 300 299 299 299 299 298 299 299 300 300 301 301 301 300 301 299 301 305 306 305 303 304 306 306 306 304 304 303 297 296 300 299 297 299 299 296 296 296 296 297 297 296 295 296 296 295 295 294 294 294 293 293
295 295 296 296 297 298 299 299 299 299 299 300 300 300 300 300 299 300 301 300 301 301 300 301 299 300 304 301 298 299 298 298 298 298 299 300 300 299 298 298 299 299 298 298 300 301 299 301 300 299 300 299 302 306 305 305 305 303 304 305 306 305 305 303 299 296 297 298 297 299 299 296 296 296 296 297 296 296 296 296 296 296 295 295 294 294 293 293
295 295 296 296 296 297 298 299 300 299 300 300 299 299 300 300 299 300 300 300 301 300 300 300 297 300 302 299 299 300 297 297 298 298 299 300 300 299 298 299 298 297 298 298 300 300 298 300 301 299 299 297 299 304 306 306 306 305 304 303 302 303 303 302 301 298 296 296 296 296 296 296 295 295 295 296 296 295 295 296 296 296 296 295 295 294 294 293
295 295 296 296 296 297 298 298 299 299 299 299 299 299 300 301 300 300 300 300 301 301 301 300 299 304 303 299 299 298 297 298 297 297 298 300 300 299 298 298 296 298 302 301 299 299 298 300 301 300 299 297 296 301 306 306 305 306 305 303 301 301 302 302 301 300 296 295 295 296 296 296 295 295 295 295 296 296 295 296 296 296 296 295 295 294 294 294
295 295 296 297 296 297 298 298 299 299 299 299 299 298 298 301 302 300 298 299 301 303 302 300 299 303 301 298 297 296 296 298 297 297 297 299 300 299 298 297 297 299 304 304 299 297 298 299 299 299 299 298 297 298 302 302 302 305 304 304 304 303 303 303 303 302 298 296 296 296 296 296 295 295 295 295 296 296 295 296 295 295 296 295 296 295 295 295
295 295 296 297 297 297 298 299 300 300 300 300 299 299 303 308 309 303 299 299 299 298 299 299 299 299 299 298 296 297 298 298 297 296 298 298 299 300 298 298 300 299 300 302 300 299 298 298 298 298 297 297 297 296 297 299 301 303 304 304 304 305 305 304 304 303 299 297 297 297 296 295 295 295 295 295 296 296 296 296 296 295 296 296 296 296 296 296
295 295 296 296 297 297 297 299 301 301 302 301 300 302 305 307 308 303 300 300 297 296 297 297 297 298 298 298 296 296 299 300 298 296 297 298 299 301 299 299 302 300 299 300 301 300 298 297 297 296 296 296 296 296 297 299 302 303 304 305 305 304 304 303 303 302 300 299 299 298 297 296 295 295 294 295 296 296 296 296 296 296 296 296 296 297 297 296
294 294 295 296 297 297 296 298 300 301 302 301 302 302 300 300 302 300 300 303 298 296 298 295 296 298 297 296 296 295 297 301 302 298 295 298 301 302 301 299 300 299 299 302 303 300 298 297 297 296 295 295 295 297 298 299 301 304 305 307 306 302 303 304 303 303 302 301 301 298 297 297 297 296 295 294 295 295 296 296 296 296 296 297 297 297 297 297
295 295 295 296 297 296 296 297 299 300 302 302 302 299 299 300 300 299 300 303 299 297 299 298 298 300 299 298 296 296 298 299 301 298 294 299 302 302 303 301 299 298 298 301 302 300 299 297 297 296 295 296 295 295 298 300 301 303 305 307 305 302 303 305 303 305 303 301 301 300 299 299 299 298 295 294 295 295 295 297 297 296 297 296 296 296 297 297
295 296 296 296 297 297 296 296 297 300 300 300 299 298 300 301 300 300 300 302 301 298 298 298 296 297 299 298 295 298 301 297 297 297 294 298 301 301 302 300 301 301 297 298 299 299 299 297 296 296 295 296 296 295 299 303 303 302 303 305 303 302 303 304 302 305 304 301 301 301 303 305 301 297 295 294 296 295 295 297 297 297 297 297 297 296 297 297
295 296 295 295 297 298 296 296 297 297 297 298 298 298 299 300 299 299 301 303 304 300 297 296 296 296 296 296 296 296 298 297 296 296 294 295 299 301 301 298 301 303 299 299 300 300 299 295 295 297 297 296 297 297 297 300 304 302 300 300 299 300 302 303 303 304 305 303 300 299 304 311 305 299 298 297 295 294 295 295 296 298 298 299 298 297 298 298
294 295 295 294 296 297 297 297 295 296 297 296 295 297 298 299 298 298 304 312 307 299 298 298 297 297 296 296 295 293 299 300 295 294 294 294 295 299 302 300 300 301 299 299 299 299 298 297 296 296 297 299 298 299 295 297 304 301 297 296 297 298 301 304 305 305 307 304 299 298 303 309 306 302 300 298 296 295 295 295 296 298 298 299 299 298 298 298
294 294 295 295 295 296 298 296 294 295 297 295 294 297 297 298 298 297 306 318 308 298 299 301 297 297 297 295 293 296 302 300 295 294 294 294 294 298 302 302 301 299 296 299 301 297 298 301 299 296 298 301 300 299 296 295 301 299 296 296 297 298 301 304 305 307 308 305 301 299 301 304 306 306 301 297 295 295 295 295 296 297 297 299 300 299 299 299
294 293 294 295 295 295 295 295 294 294 295 294 294 296 298 298 298 300 310 310 302 297 298 300 297 296 297 295 296 300 300 297 298 297 293 293 294 298 302 300 299 298 293 302 306 297 297 301 298 297 299 301 299 296 296 296 299 299 297 297 296 296 300 302 305 309 306 304 305 301 297 302 308 307 300 295 294 294 295 295 295 296 296 299 300 300 300 300
294 294 294 295 295 295 294 295 294 294 294 294 294 297 298 297 298 306 312 303 298 297 297 298 298 297 297 298 299 299 298 296 298 296 293 294 294 296 299 295 298 300 295 302 306 296 296 298 296 297 298 298 297 296 297 298 298 297 295 296 296 297 300 300 304 310 305 303 307 300 296 301 305 305 299 295 295 294 295 296 295 296 297 298 300 300 300 300
294 294 293 295 295 295 295 294 294 295 295 294 296 297 297 300 308 314 308 300 298 296 296 298 299 297 298 303 303 298 297 297 295 295 295 294 293 295 295 292 298 304 299 301 303 297 297 298 296 297 296 296 296 296 296 297 298 296 296 298 297 299 300 300 303 305 303 307 306 297 296 298 300 304 301 297 297 295 295 295 294 295 297 298 300 300 299 300
294 294 294 295 294 295 295 294 294 295 295 296 297 297 298 304 317 319 302 297 297 298 298 299 299 298 298 302 302 297 299 299 296 297 299 295 294 295 296 295 298 305 308 306 303 299 299 299 297 296 297 296 296 295 294 296 297 295 299 300 298 300 299 300 305 302 300 308 303 295 296 297 298 304 304 301 299 296 294 295 295 296 297 299 301 300 298 298
295 294 294 294 294 295 294 294 295 296 296 297 296 301 309 308 309 309 302 299 298 300 300 299 298 298 298 299 298 296 299 300 296 297 297 296 295 293 294 295 294 302 309 305 302 302 300 298 296 296 297 295 297 299 298 300 299 296 303 305 302 305 302 301 306 300 300 305 297 294 296 296 296 301 305 305 300 296 295 295 297 297 295 296 299 298 297 296
295 294 295 294 294 295 295 295 296 297 298 298 298 308 320 312 302 302 302 302 298 296 296 298 299 296 298 302 300 296 297 297 296 296 294 296 298 295 294 293 291 297 302 300 301 305 304 300 297 297 297 295 297 302 301 302 300 299 303 303 302 306 303 304 307 300 300 301 293 292 295 298 299 299 301 301 297 296 296 295 298 299 297 297 297 297 296 296
296 295 294 294 295 295 297 297 297 299 299 298 302 309 311 307 305 300 300 300 297 295 297 298 299 297 298 301 298 296 298 296 295 297 296 299 302 300 297 295 293 295 298 301 299 300 304 303 298 296 296 295 296 296 296 297 298 299 298 297 301 303 299 304 308 302 301 300 295 293 296 303 303 298 297 295 293 294 295 295 297 299 299 298 297 296 296 295
297 296 294 295 294 295 297 297 297 299 299 303 313 311 306 307 307 303 301 298 296 298 298 296 298 300 300 300 295 294 297 296 296 298 299 300 300 298 297 295 294 293 295 301 297 294 300 300 296 295 294 294 295 293 294 297 298 298 297 298 301 300 299 301 298 295 296 298 299 298 298 300 298 296 296 293 291 293 293 294 295 296 297 296 295 295 295 294
297 296 295 295 294 295 296 296 298 299 299 311 320 308 305 304 299 301 302 298 297 298 297 298 300 302 302 302 299 296 295 294 297 299 298 296 295 295 295 294 293 292 294 298 296 295 300 299 296 296 295 293 293 294 295 296 298 299 299 299 296 293 299 301 294 290 291 297 300 298 298 298 295 297 296 292 292 292 291 292 292 294 295 294 294 295 295 295
296 297 296 294 294 295 295 296 298 297 301 318 320 301 300 298 294 298 300 297 297 295 296 300 299 298 301 302 301 300 297 293 295 300 298 294 295 295 295 295 292 291 292 295 295 293 296 300 297 295 296 294 291 294 297 295 296 300 299 297 294 292 297 299 298 297 296 298 299 296 295 296 296 298 296 292 293 292 291 292 292 293 295 294 294 295 294 294
295 298 297 295 294 294 295 297 296 298 306 322 322 304 297 296 293 296 297 296 296 295 298 301 297 296 300 301 300 299 297 295 297 302 299 295 297 295 294 296 293 291 291 293 296 293 292 300 300 294 296 296 293 296 299 296 295 297 296 294 295 297 298 297 296 299 298 298 299 297 294 293 294 296 296 294 293 292 291 292 292 293 293 293 294 294 294 293
295 299 299 295 294 294 297 296 294 302 314 316 315 306 296 296 296 296 296 295 295 296 298 299 296 295 298 299 298 295 295 297 298 299 297 296 298 294 292 294 292 293 293 292 296 295 292 297 302 297 294 294 296 298 299 298 297 298 298 295 295 297 298 296 294 296 298 298 299 299 297 298 295 295 298 296 293 292 291 292 293 293 293 293 293 293 293 292
295 300 301 294 294 296 296 295 298 312 318 304 301 302 296 296 297 295 294 295 296 296 296 298 296 296 298 297 295 293 295 297 297 297 296 295 296 294 293 294 292 292 294 293 294 295 293 294 299 300 296 294 296 297 296 295 295 297 299 297 296 295 295 295 293 293 296 298 298 297 299 301 297 295 297 298 294 292 292 292 294 294 293 293 292 292 292 291
295 302 302 294 295 295 295 301 302 304 307 298 295 297 296 297 298 295 294 293 295 295 294 296 296 295 298 298 294 294 296 298 297 297 297 295 295 294 293 293 292 291 292 294 294 294 294 294 296 298 299 300 297 293 292 293 293 296 297 295 295 295 295 297 296 293 292 294 295 295 296 298 295 293 294 294 293 292 293 294 294 293 292 291 291 291 290 290
300 304 299 294 295 294 300 307 296 291 299 299 295 295 297 298 297 295 294 293 294 295 294 296 295 295 298 297 295 296 298 299 298 297 297 295 295 296 293 292 292 292 293 293 292 292 292 293 295 297 298 297 293 290 290 290 291 293 294 292 293 294 295 298 300 295 292 291 291 291 294 296 294 293 292 291 291 292 294 294 292 291 291 290 291 291 290 290
305 303 296 294 294 295 302 307 297 293 298 296 292 293 295 297 297 296 295 294 294 295 297 298 295 294 296 295 294 295 296 297 297 296 296 295 295 295 293 292 292 292 293 292 291 292 294 294 296 297 297 294 291 290 290 290 291 293 293 293 292 292 293 295 296 294 293 293 293 292 294 295 294 295 295 293 292 293 293 292 291 290 290 290 290 290 289 289
302 299 296 295 294 297 301 304 305 302 296 294 295 295 294 294 296 296 296 295 294 295 298 298 294 294 295 293 293 293 293 294 294 294 294 295 295 294 293 293 291 291 293 292 291 293 294 295 296 297 299 299 297 297 295 294 294 293 293 292 291 291 291 291 290 290 292 293 294 295 295 294 295 297 296 294 294 293 292 290 290 290 290 289 290 289 289 289
298 297 299 297 293 296 298 300 307 305 296 297 299 296 295 296 294 294 295 294 294 294 296 295 293 295 295 293 293 293 292 293 293 292 292 293 293 292 292 293 291 291 294 293 293 294 293 293 294 297 300 300 301 301 298 296 294 292 292 292 291 291 291 291 291 292 292 291 291 294 295 293 294 295 293 292 292 291 291 290 290 290 290 289 289 289 289 289
298 300 304 301 296 296 294 291 298 303 299 301 301 296 297 298 294 293 293 293 294 294 295 294 294 295 295 294 296 296 293 292 291 292 293 293 294 292 291 292 292 292 295 294 294 294 291 289 292 296 297 297 297 296 293 292 292 292 292 292 291 291 291 292 293 292 292 291 290 292 292 291 292 291 291 291 291 290 290 290 289 289 289 289 289 289 289 288
298 300 300 300 300 300 297 293 296 301 301 302 300 296 297 298 295 293 292 292 293 294 294 294 294 295 295 295 297 297 293 291 291 293 293 292 293 292 290 290 291 292 294 293 293 293 292 292 293 293 294 293 293 292 291 290 291 291 290 291 291 290 290 291 291 291 291 291 291 291 291 290 291 290 290 290 290 290 290 289 289 289 289 289 289 289 288 288
295 298 293 293 297 299 297 296 297 299 299 298 296 295 298 298 297 297 294 292 293 294 294 294 294 296 297 296 297 296 293 292 293 293 293 292 292 293 292 290 290 293 294 292 292 293 294 294 292 291 293 292 290 291 291 290 290 289 289 290 290 290 290 290 290 290 290 290 291 291 290 290 290 290 290 290 289 289 289 289 289 289 288 289 288 288 288 288
293 296 291 289 295 298 295 293 294 298 299 299 298 296 298 301 298 297 294 293 295 294 293 295 296 297 296 295 296 298 295 294 295 294 293 293 292 292 295 293 290 291 292 292 291 291 293 294 291 290 292 291 290 291 291 290 290 289 289 289 289 289 289 289 289 289 289 289 289 289 289 289 289 289 289 289 289 289 288 288 288 288 288 288 288 288 288 288
295 297 294 293 296 295 294 292 295 301 300 298 298 296 296 300 298 295 293 295 299 296 293 295 296 295 295 294 295 298 296 295 294 293 292 293 293 292 294 295 292 291 292 292 291 290 291 294 292 291 292 291 291 292 292 290 290 289 288 289 288 289 289 289 288 288 288 288 288 288 288 288 288 289 289 289 289 289 288 288 288 288 288 288 288 288 288 288
294 293 294 299 300 295 294 295 296 301 301 297 298 297 295 298 297 294 294 295 297 297 295 296 297 295 294 293 293 295 295 293 294 294 293 294 294 294 294 294 293 293 293 292 292 291 291 292 292 291 292 292 291 292 292 291 290 290 291 291 289 289 288 288 288 288 288 289 288 288 288 288 289 289 289 289 289 289 289 288 288 289 289 289 289 288 288 288
293 290 291 301 304 295 294 296 294 298 302 301 299 297 296 297 295 294 295 294 294 296 296 295 297 296 295 295 295 295 295 294 295 296 295 293 293 294 294 293 294 295 293 292 292 291 291 293 293 292 292 291 291 292 291 290 292 295 295 293 291 290 288 288 288 288 288 288 288 289 289 289 289 289 289 289 289 289 289 289 289 289 289 289 289 288 288 288
Wind_Speed
19 16 14 13 13 12 11 12 12 13 13 13 13 12 14 16 18 19 19 18 16 16 17 21 21 8 8 11 6 8 16 32 40 48 43 32 36 35 34 34 32 26 18 20 23 18 14 17 16 16 14 8 6 4 5 4 4 5 3 5 5 2 2 1 1 1 3 4 7 9 9 11 9 7 3 8 19 16 15 16 12 15 15 14 16 17 21 28
18 17 15 13 12 12 11 11 11 12 12 12 12 11 14 16 17 20 20 19 17 17 18 22 24 10 4 11 7 1 9 22 32 37 38 36 38 36 34 34 31 23 17 18 21 17 11 9 12 12 10 5 5 6 6 5 6 5 4 5 3 2 2 3 2 3 4 4 7 10 12 14 10 7 4 9 15 15 17 14 12 15 15 17 20 23 26 33
18 16 15 14 13 12 12 12 12 11 11 11 10 11 14 15 17 21 21 20 17 16 18 24 27 15 3 6 9 4 5 14 22 28 37 39 37 36 34 32 29 22 16 17 17 13 7 5 10 10 7 7 5 6 8 5 4 4 4 7 3 1 3 5 5 4 2 4 11 12 15 20 14 8 4 12 18 19 18 13 13 16 15 15 19 23 26 31
17 15 14 14 13 13 13 12 13 12 11 10 10 11 13 14 17 20 21 21 17 15 17 22 31 24 11 3 5 6 5 9 14 24 37 38 36 35 33 30 30 25 17 17 17 14 11 9 14 11 8 7 5 6 10 6 3 4 4 5 2 0 4 8 6 6 4 5 10 10 16 19 13 12 9 13 19 15 14 13 13 13 13 14 15 20 25 29
17 15 14 14 14 14 13 13 13 12 11 10 9 10 11 13 16 19 21 22 19 16 14 16 26 32 27 17 5 5 2 6 10 29 37 34 35 33 31 30 29 27 23 22 19 21 21 15 14 10 6 6 6 7 7 7 2 5 5 5 4 2 5 7 5 8 7 8 12 13 16 9 7 15 15 18 18 9 10 11 11 11 11 13 14 19 24 29
16 16 15 15 14 14 14 14 14 13 11 10 9 9 10 12 15 17 19 21 22 20 16 10 9 20 27 28 26 16 8 4 13 30 33 30 33 31 29 28 26 25 27 27 24 24 21 14 13 8 5 8 10 10 7 8 5 7 6 7 8 7 6 5 5 7 8 15 16 14 11 6 14 16 12 19 17 8 10 10 10 12 12 13 16 21 23 25
16 15 15 15 15 15 15 15 14 13 12 10 9 8 9 11 15 16 17 19 21 23 22 16 4 2 7 16 31 30 13 3 18 30 29 27 30 29 27 25 25 26 28 30 24 16 12 13 12 4 5 10 8 9 9 11 12 12 8 7 10 11 9 5 6 8 14 21 13 12 12 11 20 15 9 17 14 8 10 11 12 11 12 16 21 24 23 23
15 15 14 14 15 15 16 15 15 14 12 10 8 7 8 10 13 14 16 18 19 22 24 23 10 2 0 4 12 17 9 8 24 30 25 24 28 28 26 25 28 29 29 29 21 11 9 10 7 2 7 7 3 4 6 12 15 11 8 6 7 10 9 7 7 9 13 14 9 15 17 12 14 12 12 15 10 9 9 11 12 9 14 21 22 22 21 22
15 14 13 13 14 15 15 16 15 14 12 10 8 6 7 9 12 13 14 15 18 20 22 27 19 3 4 2 5 8 8 16 25 28 24 21 25 26 28 30 31 30 28 29 27 20 10 5 5 5 8 5 4 5 6 11 9 4 7 7 8 10 8 8 10 11 10 6 10 20 16 9 6 7 12 13 9 9 8 9 8 10 18 19 17 19 21 21
15 13 13 12 13 14 15 16 15 14 13 11 9 7 8 10 12 13 13 14 16 17 19 24 24 18 14 6 7 9 10 20 27 28 24 18 20 25 30 33 31 29 26 26 28 21 7 2 3 4 7 5 7 7 7 9 6 1 7 10 11 10 8 9 8 8 7 7 16 21 15 13 9 5 9 8 8 9 7 7 7 14 19 15 14 17 20 21
14 13 12 12 13 14 14 16 15 15 14 12 11 10 10 11 12 13 13 14 14 15 17 17 17 22 27 21 12 7 12 22 28 30 26 19 18 22 27 30 31 29 24 23 23 18 9 3 1 2 4 2 5 9 7 5 5 1 4 8 10 11 13 13 8 7 4 4 9 14 15 16 12 8 6 6 7 7 6 8 11 15 15 13 14 15 18 20
14 12 12 11 12 13 14 15 15 16 16 16 14 12 11 10 10 12 12 13 13 15 15 16 15 9 17 23 12 6 15 21 28 31 27 20 16 19 20 23 29 29 23 20 20 19 15 9 8 7 2 1 3 5 4 2 3 4 5 7 8 10 15 15 9 8 4 3 4 3 12 16 12 9 8 7 6 6 7 10 12 13 12 11 12 11 15 18
14 12 11 11 11 12 13 14 15 16 18 20 19 16 12 9 9 10 10 12 13 15 14 14 15 11 10 10 7 15 19 21 29 29 26 23 15 13 15 16 23 27 25 21 20 20 17 19 21 10 2 5 3 1 3 4 3 5 7 5 4 7 10 12 11 9 6 6 7 3 6 8 9 9 9 8 7 7 7 10 10 10 9 9 9 9 11 17
14 12 10 9 9 10 11 12 13 14 17 21 24 22 16 9 7 8 8 11 12 12 13 11 10 16 15 4 4 19 21 21 30 31 28 27 19 13 13 14 18 23 25 23 23 22 21 25 23 9 3 5 2 2 4 6 5 4 4 3 4 5 3 8 11 11 6 6 8 9 6 3 6 9 8 7 7 6 6 8 8 7 7 7 8 9 9 14
13 11 9 8 8 8 9 10 11 11 14 19 23 27 25 15 6 5 6 8 12 11 10 11 8 10 10 3 4 18 24 25 30 33 28 24 24 19 15 13 14 17 22 24 23 24 28 30 21 6 3 4 3 6 5 4 5 4 3 3 5 3 1 7 10 11 3 3 10 10 6 2 4 7 7 6 6 6 5 7 6 6 7 6 6 7 7 10
12 12 10 8 7 6 6 7 8 9 11 14 17 20 26 26 11 4 4 4 7 11 9 11 10 9 7 1 7 16 21 24 27 30 24 18 21 20 17 12 11 12 16 24 27 24 24 21 11 3 3 5 6 6 5 5 5 5 4 2 4 3 3 5 8 12 4 1 10 9 7 2 2 5 6 5 5 5 4 5 5 5 5 5 5 5 5 6
12 12 11 9 8 6 5 5 4 4 4 5 9 11 14 26 20 2 4 3 4 7 11 14 9 8 7 6 7 10 15 20 24 29 26 16 15 21 20 12 10 11 8 19 29 21 16 9 3 4 6 6 5 3 6 6 4 4 4 3 3 4 3 3 5 12 10 7 9 10 8 5 2 1 4 5 5 4 2 5 4 4 4 4 4 4 4 5
13 12 12 11 10 8 5 5 6 8 9 9 11 11 8 14 23 19 11 5 1 5 9 17 13 6 5 9 6 11 18 19 20 28 28 16 11 18 21 13 10 11 5 11 19 13 8 5 4 5 6 7 7 6 6 3 1 2 3 3 4 4 5 5 3 6 10 11 10 8 8 6 2 0 2 4 4 2 1 3 3 2 3 3 3 4 4 4
15 14 13 13 12 11 8 6 7 8 10 10 10 9 7 6 12 26 32 24 10 5 3 9 9 4 2 7 9 17 17 12 16 26 30 22 11 11 18 14 8 8 6 4 8 8 4 4 6 6 6 7 5 5 4 4 4 5 3 4 4 4 4 2 2 2 4 8 8 6 6 5 2 2 2 4 3 2 2 2 2 2 3 3 3 3 4 4
15 15 13 13 13 13 12 11 12 10 6 6 6 5 4 3 4 10 21 22 10 5 5 2 2 3 2 5 11 19 12 5 11 26 36 27 13 9 14 12 5 8 7 2 3 6 5 8 7 4 4 6 5 4 0 3 3 6 5 5 4 3 2 2 3 5 2 5 4 3 5 3 2 2 4 4 3 3 2 2 2 2 2 3 3 4 4 4
16 15 14 14 12 13 14 13 14 14 11 6 5 5 2 3 5 1 4 9 5 6 8 1 1 2 2 4 12 17 6 2 9 25 37 26 11 8 9 9 7 8 6 1 2 5 6 9 5 5 5 6 6 4 1 3 4 5 5 5 4 3 1 2 3 5 3 4 0 1 3 2 1 1 3 3 2 1 2 0 1 1 1 1 2 3 4 3
16 16 16 14 11 11 12 13 13 12 12 11 14 13 6 4 6 3 1 4 3 6 5 3 4 3 4 2 12 13 2 4 9 20 33 24 12 7 3 7 11 6 6 3 3 5 7 6 5 6 4 3 5 4 2 6 5 4 4 4 3 2 2 4 3 5 5 3 1 1 3 3 3 3 3 2 2 4 4 3 2 1 0 1 1 2 3 4
16 16 17 15 11 10 11 12 11 9 10 16 19 13 6 6 5 2 2 4 2 4 3 5 5 5 6 4 13 12 5 7 5 13 27 19 7 5 3 7 9 5 6 7 5 5 5 2 6 4 2 2 3 5 4 5 5 4 4 4 0 2 1 1 3 6 5 2 3 3 2 3 4 3 3 4 3 4 4 4 4 3 3 2 2 1 1 2
16 15 16 16 11 8 9 10 8 11 15 20 21 13 6 6 5 3 3 3 2 2 2 3 2 4 4 5 14 10 3 4 0 9 22 14 3 2 4 4 5 4 5 7 10 9 4 4 3 2 4 3 1 6 8 5 4 3 2 4 2 2 1 1 2 5 5 3 3 2 2 3 4 4 5 4 2 2 2 2 3 3 3 3 1 1 2 3
15 15 16 16 11 7 7 9 10 12 14 14 14 10 5 4 3 4 4 3 3 3 2 1 1 5 4 7 15 7 1 3 2 7 16 12 4 1 3 2 3 5 2 4 9 8 3 3 1 3 5 4 4 6 6 2 2 3 1 3 2 3 3 3 3 3 3 3 2 2 2 4 4 6 6 4 2 3 2 1 4 5 4 3 2 3 3 3
15 15 15 16 13 7 5 6 9 9 8 9 9 5 3 3 2 4 4 4 3 3 4 2 1 7 7 9 13 4 3 4 3 9 14 12 6 1 4 3 2 4 1 1 4 3 2 3 3 3 3 6 6 4 1 1 4 2 1 2 2 2 3 2 1 1 1 1 1 2 2 3 4 5 8 6 5 6 4 3 5 5 4 4 3 3 4 4
14 14 15 16 15 10 4 3 6 6 4 5 5 3 1 1 1 3 3 5 4 2 4 3 2 7 6 9 11 2 2 7 5 9 15 14 9 1 5 4 2 3 1 2 3 1 2 5 6 5 4 6 6 2 1 3 4 0 2 2 4 2 3 2 2 2 1 2 2 3 3 2 4 5 5 6 6 6 6 5 6 5 5 5 4 4 4 4
13 14 14 14 15 15 9 4 5 6 4 3 3 2 1 1 1 2 4 3 3 1 2 3 3 5 5 8 12 6 1 6 2 7 15 15 11 4 4 3 2 1 1 4 3 1 3 5 6 5 6 5 2 2 3 3 2 2 4 1 3 2 3 1 3 1 1 1 3 1 3 1 5 4 1 4 5 7 7 7 6 5 6 5 4 5 4 4
11 13 14 12 11 13 12 9 9 7 4 3 3 2 2 1 1 4 6 1 2 2 0 3 3 5 6 7 9 6 3 4 2 6 13 11 11 7 4 0 2 2 2 4 4 0 1 1 1 3 4 3 3 5 4 4 1 2 4 2 2 2 2 3 3 1 2 1 4 3 2 1 5 4 2 2 4 7 7 6 6 5 6 5 5 5 5 5
10 11 13 11 8 7 8 11 11 7 5 4 4 3 1 2 4 6 3 2 0 1 1 3 3 4 7 6 5 6 6 4 2 6 7 4 7 8 4 1 3 4 4 5 4 0 2 2 1 3 2 3 4 3 3 5 1 2 4 3 4 4 4 3 2 2 3 3 5 2 1 1 3 4 5 4 4 6 7 4 4 5 5 5 5 5 5 5
9 10 11 11 10 8 5 7 10 7 5 5 4 2 1 2 5 6 0 2 0 2 2 4 3 3 7 5 4 6 5 5 6 6 6 4 7 7 4 3 3 4 5 5 4 3 4 4 1 1 2 2 2 2 1 2 2 3 3 3 3 3 3 3 4 3 1 5 5 2 3 1 3 5 4 5 5 5 8 7 6 6 5 5 4 4 5 5
8 9 11 11 11 11 7 5 7 5 4 4 2 2 3 3 2 1 2 2 1 2 1 1 2 3 4 3 4 5 4 5 6 5 4 4 5 5 5 4 1 3 4 3 4 4 2 1 3 3 1 3 4 2 2 4 4 4 3 4 3 3 3 2 3 1 3 5 3 2 4 1 6 7 5 6 5 4 6 7 8 7 5 4 4 5 5 4
7 8 10 11 11 11 9 6 6 4 2 3 2 4 7 4 1 2 2 2 1 2 1 1 2 2 2 3 4 4 2 2 4 5 2 2 4 3 3 3 2 2 1 1 3 4 3 3 5 4 2 4 5 3 2 4 5 5 3 3 2 2 3 3 4 2 3 4 3 2 3 3 5 5 3 5 5 5 5 6 7 6 5 4 5 5 5 5
6 8 9 10 10 10 9 8 6 3 2 3 3 5 5 0 3 1 2 3 1 3 2 0 3 3 3 4 2 3 2 2 3 4 3 3 4 3 3 5 5 3 2 2 2 2 2 4 4 4 2 3 4 3 2 0 2 3 1 1 1 3 2 3 3 2 4 4 4 3 2 3 2 3 3 2 2 1 4 5 5 4 3 3 3 4 5 6
3 7 9 11 11 10 9 8 7 3 1 3 6 5 3 3 3 2 2 3 1 2 2 1 2 4 4 3 2 1 1 1 2 4 4 3 2 2 3 4 5 3 3 3 1 0 1 3 4 3 2 3 4 1 2 2 1 1 1 3 2 1 2 1 3 3 1 3 4 3 3 3 2 2 3 2 1 3 3 3 3 2 3 3 4 5 5 5
1 3 8 12 12 11 10 9 7 3 1 4 6 3 3 3 2 2 2 1 1 1 1 3 3 5 3 4 4 3 1 1 1 3 3 2 1 0 1 2 3 3 2 2 0 1 2 3 4 4 2 2 2 3 1 2 1 0 2 2 1 2 4 3 1 1 4 1 3 2 3 4 3 2 2 3 2 3 2 2 2 4 5 4 4 5 5 5
0 1 5 11 14 12 11 10 7 3 2 6 5 1 3 2 2 3 2 1 1 2 3 1 2 3 2 2 4 4 3 2 2 4 2 1 1 0 0 2 1 1 0 2 1 1 0 3 4 2 0 2 2 2 3 2 1 2 1 1 2 1 4 3 1 3 4 1 4 2 3 4 3 2 1 1 3 5 5 5 4 5 5 4 6 6 6 6
1 0 3 10 15 12 10 11 6 1 3 6 4 2 1 0 1 2 1 1 0 2 4 2 0 1 1 1 2 4 3 2 2 4 1 1 1 1 1 1 0 0 1 1 1 1 0 3 5 1 1 4 4 1 2 3 2 3 2 2 1 2 0 1 1 1 2 2 4 4 4 3 3 4 2 4 8 8 7 6 4 5 5 5 6 6 7 7
1 1 2 10 16 12 10 9 4 2 5 4 2 2 1 0 1 2 2 1 1 2 2 2 2 2 1 2 1 2 2 2 1 2 1 1 1 2 1 0 1 1 2 2 2 1 1 1 4 3 1 4 4 3 1 3 4 4 2 2 2 3 2 0 1 2 2 2 3 4 5 3 5 5 5 9 11 10 9 7 5 6 6 5 5 6 6 6
2 1 1 9 15 10 7 7 4 5 5 2 3 2 1 1 2 1 1 1 0 1 0 2 2 2 1 2 1 0 1 1 1 1 0 0 1 0 0 1 0 2 2 3 3 0 2 1 3 5 4 2 2 2 0 2 2 3 3 3 2 1 1 0 0 2 3 2 2 2 4 5 4 3 5 8 9 9 9 6 5 5 5 6 6 6 6 6
2 2 2 10 14 7 5 7 6 5 3 2 1 1 1 1 0 2 1 0 1 1 0 3 3 2 2 2 1 0 1 2 1 1 0 1 1 0 1 2 2 1 2 3 3 1 1 1 2 4 4 2 2 0 0 2 2 1 0 0 1 0 1 0 2 2 1 2 4 2 5 8 4 1 3 6 6 6 7 5 4 5 6 7 7 7 7 7
3 2 2 10 12 4 4 6 3 2 3 2 0 1 0 2 2 2 2 2 2 1 1 3 3 2 2 2 1 0 1 1 1 1 1 1 1 2 1 2 3 1 2 1 1 0 1 3 0 4 4 3 4 2 1 1 2 2 0 1 2 1 3 4 3 3 0 1 1 2 3 7 4 2 3 3 2 3 3 3 4 6 7 7 7 8 9 8
2 2 2 12 11 1 5 5 2 3 2 1 1 1 2 1 2 1 2 2 2 1 2 2 1 1 1 2 2 1 1 1 1 1 1 1 2 2 2 2 2 1 3 1 1 0 2 3 1 4 4 3 4 3 2 2 4 4 1 1 2 0 2 4 4 2 1 2 1 1 4 6 4 3 2 2 2 2 3 3 5 7 7 8 8 9 10 10
1 2 1 11 9 1 4 2 1 2 0 1 2 2 2 1 1 1 1 1 1 1 2 1 0 1 1 2 3 2 2 0 1 1 1 2 2 0 1 1 1 1 1 1 1 0 0 1 1 3 5 6 5 5 5 5 2 1 2 0 2 3 4 2 1 2 1 6 6 3 6 5 3 3 2 3 4 5 6 6 6 8 9 9 9 10 11 11
1 1 2 8 10 6 4 3 5 5 2 2 3 2 1 2 1 1 2 1 1 2 2 0 0 2 2 2 3 2 1 1 0 1 2 0 2 1 2 2 1 1 0 1 1 2 1 1 1 2 1 4 4 4 4 3 2 1 1 0 1 3 4 2 0 1 3 5 7 6 7 4 4 6 8 9 9 9 11 11 11 11 12 11 10 10 10 10
2 1 3 6 9 8 3 0 4 5 4 4 3 1 1 2 1 1 2 2 1 2 2 1 1 2 3 2 3 2 2 2 1 1 0 2 3 1 1 2 1 0 0 3 4 4 3 1 2 4 5 5 5 5 3 0 3 4 3 2 3 4 5 3 2 3 3 2 5 9 10 13 15 15 14 14 12 11 12 13 13 13 14 13 11 10 11 10
1 1 0 2 3 4 4 3 4 4 3 4 3 2 3 2 1 1 1 1 1 2 2 1 2 2 2 2 2 1 1 2 2 1 1 2 2 2 2 1 1 1 0 3 3 3 4 2 3 5 7 7 6 7 4 1 5 7 6 6 7 7 6 5 7 8 2 2 7 9 8 15 19 15 13 15 13 11 12 13 14 15 15 13 11 12 13 13
1 2 2 1 1 1 2 1 2 5 4 3 3 2 4 3 2 2 1 1 1 1 1 1 1 3 4 4 3 1 0 1 2 2 1 1 2 3 3 1 1 2 2 3 2 3 4 3 3 3 5 7 6 8 7 4 7 7 6 9 11 10 10 11 14 14 7 7 13 9 7 16 19 16 16 17 14 14 14 14 14 15 14 13 12 13 14 14
2 2 1 2 1 3 1 0 3 6 5 3 2 2 4 5 4 3 1 2 2 2 1 1 4 4 5 4 5 3 3 1 1 3 2 1 1 1 2 2 1 2 4 3 2 2 3 2 2 1 5 8 6 9 9 6 7 6 7 11 15 15 14 13 15 16 14 16 18 17 19 22 20 18 17 16 14 13 12 12 12 14 15 13 12 13 14 14
1 2 1 3 3 1 0 1 3 4 3 2 1 2 4 6 6 3 2 4 2 2 2 3 4 4 5 4 5 3 6 5 2 3 4 3 1 2 2 2 1 2 3 3 1 1 1 1 0 2 4 7 4 5 7 7 8 10 12 16 17 14 13 13 14 14 14 15 17 18 20 19 16 14 13 12 11 9 9 11 13 14 13 12 12 13 13 14
1 2 3 4 3 0 0 1 2 4 2 0 2 3 3 5 7 4 2 3 4 4 5 5 4 4 4 3 4 5 6 6 5 5 7 6 3 3 3 2 4 3 1 2 1 1 1 2 2 3 2 5 3 2 6 10 12 12 14 14 13 10 8 8 9 10 10 10 11 12 12 13 11 8 8 9 9 9 11 13 14 14 12 11 13 14 14 15
2 1 2 4 2 1 1 1 1 2 2 2 3 4 3 3 5 5 2 0 2 3 5 6 6 5 3 3 7 8 6 7 6 5 6 5 3 3 3 3 5 5 4 3 1 1 3 1 1 1 1 4 2 3 7 12 12 9 7 6 5 5 5 5 7 11 10 7 6 8 9 10 10 9 10 12 12 12 12 11 12 14 14 13 14 15 15 16
Wind_Direction
14 17 24 26 28 31 33 30 30 26 27 31 34 37 31 28 26 27 26 20 16 14 16 6 359 340 218 185 117 58 32 22 21 25 29 11 359 4 5 5 2 3 359 357 21 34 30 32 20 31 50 34 16 342 360 23 22 52 78 72 89 89 55 128 183 329 80 48 12 16 18 61 54 3 35 43 39 52 61 58 65 65 60 51 38 30 28 32
15 16 22 30 32 30 29 23 22 20 21 26 30 32 26 28 29 28 27 22 20 19 20 13 11 12 213 196 195 38 25 16 20 23 17 7 8 9 8 11 9 10 12 16 22 17 21 8 351 25 48 30 2 354 12 10 24 63 104 80 93 148 69 46 359 351 47 71 55 44 47 54 36 355 11 60 45 37 49 37 37 48 41 40 31 28 32 36
18 20 24 30 32 29 26 21 21 20 22 25 27 29 27 31 31 30 29 26 24 24 27 22 24 36 84 192 209 240 335 3 21 14 2 5 9 10 13 13 15 23 28 35 31 21 32 10 15 43 57 45 9 14 34 7 19 47 76 77 64 135 72 23 9 22 49 105 78 61 60 56 35 12 19 76 61 36 41 24 22 37 26 27 25 26 33 39
24 28 31 32 31 28 27 26 26 26 27 27 27 28 29 34 35 32 30 30 27 25 32 34 39 46 52 64 214 239 310 16 24 355 353 5 9 12 16 14 21 33 41 51 48 45 54 47 45 53 62 45 355 37 39 355 27 40 47 75 7 135 61 8 7 63 77 94 86 75 67 64 46 35 31 67 64 35 34 26 26 38 27 29 26 27 35 41
29 30 31 30 29 29 30 32 31 32 30 30 31 28 33 37 35 33 32 34 29 23 28 42 52 55 57 52 40 241 299 44 354 343 353 5 11 14 16 17 27 36 48 59 52 51 52 46 50 47 51 45 14 44 24 337 68 71 45 55 3 52 70 3 8 73 87 86 76 66 60 73 71 44 33 58 67 41 29 27 33 44 37 39 35 37 40 42
31 29 29 29 30 32 34 35 33 31 31 32 34 31 39 38 32 33 33 35 32 26 19 23 59 61 58 56 58 67 82 81 324 339 356 7 14 17 18 22 30 38 52 55 44 46 46 40 54 45 45 61 47 57 39 358 59 89 51 40 33 55 71 10 29 71 92 79 67 70 67 79 82 59 32 56 63 47 38 29 38 47 46 51 49 47 45 44
33 29 31 32 32 35 34 34 30 28 30 30 35 39 45 38 31 31 30 32 32 29 21 12 352 53 52 50 55 60 79 70 336 347 1 14 20 17 21 28 35 44 49 45 35 41 43 42 55 49 67 69 50 58 64 44 57 83 70 40 46 58 61 43 67 78 81 81 77 87 79 59 73 73 41 55 55 42 43 32 40 51 55 56 52 48 46 46
37 33 34 34 34 35 33 33 29 26 26 26 33 42 44 34 28 25 25 26 25 28 26 22 15 236 191 31 50 56 62 360 346 357 8 18 24 21 26 31 38 46 46 41 31 33 43 45 47 46 63 59 49 41 52 59 51 62 78 56 55 58 51 45 62 62 70 89 96 75 67 55 76 84 53 49 44 32 37 38 42 55 57 54 51 47 46 47
39 38 38 37 36 36 35 34 29 27 23 20 22 23 26 17 13 10 12 15 18 25 28 33 39 80 145 109 79 64 18 351 352 5 14 20 25 27 32 31 35 44 44 40 35 37 44 43 34 67 80 61 57 22 9 68 58 38 83 77 72 65 45 45 56 59 60 78 79 66 53 34 61 84 51 35 29 25 27 41 38 52 55 50 50 47 44 46
39 39 39 37 37 38 38 36 33 29 21 15 7 355 357 354 358 2 3 8 14 21 26 36 46 63 88 102 73 63 353 352 5 13 20 26 27 30 35 31 33 41 43 41 36 35 32 16 18 85 100 65 53 41 19 76 108 144 95 82 75 75 47 40 50 51 53 59 69 73 59 29 16 61 57 13 14 21 23 42 35 52 54 50 50 47 45 45
36 37 38 36 38 39 39 40 39 35 27 18 5 349 344 345 353 1 4 6 7 17 21 26 37 55 65 65 72 60 353 358 10 16 24 30 31 30 31 31 33 36 42 43 35 33 31 6 255 96 86 50 49 55 34 71 133 144 106 82 55 63 44 23 16 360 11 61 63 77 65 34 16 43 47 342 8 12 19 46 42 52 54 50 51 48 48 46
33 34 33 34 38 39 40 42 43 43 39 30 17 3 349 340 346 354 2 7 9 16 16 19 21 32 54 56 65 19 1 6 9 18 27 30 34 31 27 32 36 35 41 44 34 37 51 57 69 67 63 116 47 45 42 35 108 57 71 81 32 46 39 12 357 337 352 12 316 77 53 23 14 25 12 358 17 0 19 47 44 52 53 50 52 49 50 46
32 31 28 32 37 38 40 42 46 48 48 43 34 24 10 351 345 346 359 11 9 14 19 23 30 50 66 58 41 16 14 13 14 21 28 28 35 37 31 35 38 39 45 51 46 47 63 68 71 77 57 80 64 19 78 20 29 42 43 71 20 34 26 1 355 338 11 9 320 109 66 360 3 9 5 8 11 359 25 48 42 48 50 47 50 48 49 45
35 32 27 29 29 31 34 40 46 46 50 49 43 34 22 9 4 6 12 14 9 9 22 25 37 63 66 93 27 17 15 20 22 22 20 20 26 31 34 42 43 41 46 55 57 56 66 69 69 77 47 62 70 25 52 15 22 32 14 25 23 50 346 339 4 2 34 7 354 86 89 345 1 359 0 3 3 8 32 52 44 44 48 44 47 48 50 45
37 35 31 24 17 23 28 35 43 47 54 53 48 40 28 14 352 12 26 20 26 24 26 35 52 75 67 97 14 7 14 23 20 16 13 14 20 15 5 24 42 42 44 49 57 56 59 65 63 53 359 356 27 48 40 17 28 23 27 13 0 63 319 329 10 18 52 324 3 79 106 23 22 356 351 359 5 5 28 55 45 45 48 45 49 50 54 48
36 37 34 25 11 10 16 26 39 51 56 54 47 38 29 23 359 300 9 1 18 22 31 35 41 85 93 2 339 358 13 12 4 8 14 18 20 9 358 18 39 35 38 43 54 54 46 58 70 64 33 5 23 56 62 42 22 13 54 75 338 18 14 337 4 8 12 311 15 64 123 121 30 351 342 354 6 350 24 61 45 45 45 46 53 49 57 52
28 34 34 33 21 2 349 357 12 17 22 28 14 4 18 26 23 329 285 294 298 357 36 28 20 93 76 357 342 350 349 348 354 6 12 19 20 14 18 32 17 1 10 34 43 41 21 28 71 59 44 31 19 37 71 58 22 15 36 73 26 22 32 359 350 354 11 72 57 62 103 125 148 334 331 341 357 344 39 74 58 55 47 47 56 52 57 53
18 23 28 31 28 19 0 329 311 305 304 297 313 330 340 16 38 54 48 57 284 331 25 15 15 95 37 359 352 322 319 332 354 4 9 16 16 18 27 34 2 352 354 24 29 21 2 22 56 55 32 26 21 23 73 101 132 81 47 80 69 44 54 39 16 347 13 60 76 73 91 115 144 337 335 329 352 8 54 78 72 64 58 49 50 54 52 47
14 15 18 21 25 25 20 5 346 318 303 303 301 319 331 333 35 48 47 57 61 24 35 352 10 108 326 330 323 322 319 326 358 6 8 8 358 9 28 31 17 28 42 15 16 7 4 44 42 43 17 2 2 15 82 151 155 125 107 96 85 54 56 18 319 317 24 55 56 67 96 113 111 348 327 314 344 22 3 28 46 35 44 39 40 41 38 42
13 11 11 12 18 20 24 30 21 5 333 319 307 318 357 2 19 26 34 50 65 80 106 306 358 103 335 306 323 342 340 322 10 12 7 1 344 357 18 13 14 50 47 9 355 354 25 60 37 5 323 313 312 316 198 175 137 112 97 71 64 68 47 326 306 317 27 81 35 57 96 104 101 325 305 314 352 12 346 18 44 29 33 32 40 32 21 26
11 9 6 5 11 15 23 31 28 33 38 29 39 56 86 73 63 63 8 45 56 70 86 69 77 87 317 299 337 354 359 310 8 10 7 4 358 9 3 359 35 39 12 12 8 339 37 60 8 312 297 288 297 302 183 115 86 86 96 78 46 58 358 288 265 313 11 101 12 40 92 115 162 266 297 328 1 299 275 266 52 34 45 31 45 32 5 345
10 8 5 0 5 12 20 31 32 39 52 66 77 78 92 82 76 134 143 84 33 31 66 41 52 26 310 342 353 352 17 4 355 0 5 8 18 33 356 20 59 48 343 17 45 11 50 47 317 305 308 299 323 334 83 94 84 76 89 95 52 20 306 289 294 336 13 99 200 195 140 201 221 233 257 262 242 244 255 245 243 249 32 19 31 25 1 342
12 11 8 0 2 13 22 32 32 38 61 75 76 73 79 67 75 130 69 96 50 357 24 25 44 8 345 18 360 356 48 33 344 339 357 6 23 51 62 41 63 61 12 42 73 69 70 343 304 316 19 56 6 3 51 77 67 59 74 102 141 311 348 8 358 343 348 83 148 155 164 233 245 254 244 231 225 241 265 276 263 241 222 249 253 232 291 325
17 15 15 8 2 11 26 36 43 54 65 74 70 65 80 74 68 70 59 87 50 349 16 30 82 34 10 357 353 359 73 43 342 328 352 10 31 35 71 74 73 57 27 53 78 90 123 251 287 19 55 99 135 26 38 54 35 1 62 116 163 275 242 219 319 329 337 19 92 109 346 283 218 200 222 229 244 260 275 311 298 282 258 261 291 266 251 259
20 20 21 17 10 4 17 38 47 50 61 67 61 57 74 74 41 39 66 77 18 328 350 32 86 31 5 348 353 357 117 32 52 337 349 10 7 9 69 98 83 50 356 54 74 90 124 247 339 44 42 62 100 51 31 47 37 340 335 129 190 241 237 267 322 354 15 355 351 75 348 295 234 199 216 230 233 238 259 304 272 289 300 313 340 312 302 292
23 23 25 24 21 8 3 37 37 40 59 51 42 47 63 66 28 24 67 71 15 318 357 7 36 10 352 346 346 344 58 2 338 358 2 7 350 133 71 350 52 59 209 123 66 93 54 358 43 67 69 60 72 77 31 100 65 5 188 104 359 245 215 256 281 193 108 255 292 88 151 275 282 230 218 206 206 235 264 271 259 277 295 295 292 282 296 302
27 25 27 29 28 29 46 60 30 39 63 27 22 48 64 67 20 15 55 46 12 315 353 333 335 8 356 347 349 46 72 314 312 14 10 4 347 39 65 12 30 35 202 107 42 29 20 2 18 33 44 51 57 50 263 124 90 342 194 21 338 267 219 223 178 185 222 253 303 53 118 234 281 256 214 176 188 238 259 254 257 268 269 273 270 265 272 271
31 28 28 31 33 41 58 72 52 53 46 8 27 66 114 105 324 41 77 60 344 353 1 312 332 7 353 356 14 73 151 305 348 356 349 9 11 14 64 49 113 23 309 116 88 346 29 8 2 21 30 37 65 258 244 138 95 245 195 245 293 231 207 162 115 145 354 340 289 302 113 194 270 272 139 134 193 232 238 229 232 241 251 263 268 267 269 267
35 33 30 32 39 44 51 59 60 54 35 34 64 105 140 58 16 58 75 135 308 18 233 318 344 349 346 360 18 42 10 0 84 320 335 19 27 29 74 51 129 97 1 102 122 208 59 18 334 71 39 355 269 255 214 154 337 282 151 120 35 73 66 72 91 99 53 5 252 227 129 201 267 259 163 144 228 227 220 218 222 231 244 253 261 270 275 277
41 39 33 34 41 40 44 49 46 43 46 67 97 118 126 14 53 63 41 236 336 347 244 9 2 333 1 18 8 9 19 12 321 326 349 22 8 24 86 205 99 88 9 41 81 13 330 336 145 101 35 287 270 281 193 181 252 37 94 79 57 46 30 48 52 66 53 297 248 218 88 143 277 270 195 190 225 198 184 197 217 229 247 258 263 269 277 279
46 43 38 38 42 40 41 35 28 34 60 88 117 96 12 5 69 88 315 249 60 325 357 20 354 4 27 43 13 354 11 355 338 2 16 6 360 15 32 9 40 52 12 13 23 355 355 11 24 272 297 310 332 358 30 256 298 62 85 82 65 358 359 21 355 33 112 265 256 277 339 144 230 268 222 219 248 190 169 171 176 195 231 264 277 278 280 276
48 43 41 42 45 46 49 34 23 40 77 104 113 46 64 47 38 137 276 324 349 321 34 342 313 25 31 54 35 350 346 353 2 31 21 7 26 29 31 27 7 21 9 344 343 348 359 355 322 301 288 30 23 22 356 332 353 28 45 66 60 341 360 347 308 315 211 249 263 303 340 278 233 256 227 209 225 204 173 160 159 171 203 254 276 284 290 289
49 44 40 41 44 44 47 39 27 42 104 118 69 40 75 77 293 232 290 329 340 316 41 246 301 6 30 44 23 341 1 1 358 29 14 17 48 39 35 40 52 56 359 326 354 357 343 310 339 354 348 20 40 65 13 332 351 7 34 66 65 67 31 297 273 282 257 268 282 294 325 283 264 286 252 202 204 208 184 158 159 166 180 228 257 280 293 293
52 47 41 40 42 38 36 30 25 43 112 111 66 53 69 313 241 167 299 262 237 337 6 287 321 359 42 55 348 310 45 12 342 30 14 27 46 13 354 6 21 62 85 47 42 27 7 307 331 11 342 360 40 81 99 169 350 343 232 97 79 135 145 255 241 247 272 293 296 291 273 230 256 314 302 274 280 218 172 159 153 172 198 235 281 296 297 294
65 47 39 37 34 27 24 16 12 27 122 89 60 65 103 240 240 147 244 249 256 328 324 339 35 39 17 2 331 329 100 300 352 52 29 39 65 3 352 338 353 40 77 48 358 36 31 274 283 321 306 13 14 326 124 108 25 305 182 66 38 166 136 186 200 190 220 320 298 267 232 230 245 295 324 351 37 95 131 152 136 232 270 334 329 298 294 295
93 40 33 29 21 13 10 5 3 14 114 90 60 63 188 225 225 159 186 210 107 169 315 342 36 54 355 325 343 358 31 304 16 50 25 42 117 277 357 280 322 27 75 89 51 7 15 283 302 337 321 23 344 288 31 51 315 356 49 48 259 195 112 110 258 28 68 5 282 265 260 294 325 290 359 45 113 144 173 187 179 257 293 335 303 279 283 286
332 30 29 20 12 6 360 356 357 6 88 86 77 182 213 210 191 175 179 171 157 122 92 14 1 32 343 317 329 326 337 328 22 49 30 15 35 135 135 261 286 33 109 120 123 315 349 279 309 19 315 291 288 277 7 15 139 91 45 223 210 71 80 94 336 354 37 297 273 295 278 300 330 277 317 45 208 219 231 225 236 276 302 299 271 264 266 272
308 336 23 11 5 360 354 351 348 15 74 72 80 164 172 165 201 189 184 190 176 81 87 125 167 45 178 207 313 312 337 338 11 46 58 3 40 156 160 278 219 328 307 89 97 298 40 296 308 12 228 304 341 31 344 340 25 88 136 183 106 89 9 50 61 325 345 287 282 303 297 267 227 224 218 213 218 219 224 229 245 266 268 262 262 265 268 277
359 19 9 3 1 357 353 346 337 60 66 74 120 177 167 224 256 221 203 225 80 89 94 173 164 61 142 164 237 302 358 23 34 50 98 63 68 158 157 183 225 321 323 81 114 249 29 8 289 305 284 305 350 40 326 317 348 22 55 16 42 129 172 175 116 172 203 262 279 313 322 276 231 221 200 210 217 210 211 220 228 240 249 256 265 273 276 282
50 64 297 355 0 356 356 5 29 54 61 116 177 172 121 242 271 269 213 208 68 70 95 179 152 76 174 175 128 299 27 64 89 73 159 114 72 231 258 170 231 337 353 54 84 249 20 74 255 302 343 324 325 39 119 262 312 349 8 355 352 80 130 215 173 134 142 195 228 288 299 266 240 213 201 220 227 210 200 206 222 243 260 270 270 268 270 276
61 53 287 354 1 345 2 36 45 52 77 115 137 146 107 145 167 343 334 135 121 286 171 139 132 119 158 140 88 123 75 77 82 78 208 298 68 251 265 170 183 315 14 41 48 51 15 102 228 300 336 305 255 283 325 247 222 199 231 190 177 142 99 135 290 318 101 179 188 184 274 271 260 207 236 249 239 208 191 197 241 268 274 278 276 268 272 279
65 80 289 354 357 343 48 53 48 60 96 105 62 208 46 91 100 8 343 35 66 49 43 84 107 114 135 132 107 159 109 111 115 96 171 245 187 197 250 151 168 172 89 84 342 51 114 96 72 279 269 263 276 300 358 230 153 120 21 122 120 102 107 133 232 266 294 261 155 134 262 269 267 246 261 267 232 205 190 196 261 286 286 285 283 281 286 286
91 183 309 359 351 356 73 55 8 31 51 255 282 344 1 55 100 24 350 16 38 49 31 39 77 67 133 151 132 166 181 150 157 170 194 245 233 216 217 172 172 107 77 94 272 324 85 80 33 285 289 316 316 331 1 21 94 100 339 43 101 40 99 144 183 184 208 231 133 69 268 264 277 278 276 316 322 296 276 238 259 283 289 288 285 291 296 292
124 216 308 3 356 135 103 91 156 69 315 268 40 35 1 40 96 67 49 25 36 100 80 67 288 35 126 140 107 152 212 169 152 250 161 183 244 258 125 211 207 89 89 195 222 277 324 97 68 343 335 339 345 352 342 340 45 123 271 349 102 81 81 107 153 80 269 221 174 196 255 249 275 321 1 354 334 314 296 281 278 288 295 295 294 298 296 292
45 246 274 0 24 69 109 167 147 132 153 109 83 68 23 47 64 146 155 100 65 145 119 102 103 80 99 93 67 71 347 14 224 317 18 245 271 356 39 331 339 94 215 236 141 114 130 182 124 83 320 298 311 312 299 304 319 306 303 128 151 129 135 177 217 95 261 229 172 200 256 265 290 311 319 310 303 300 298 300 302 299 297 297 296 294 290 290
65 49 292 343 25 56 70 115 107 119 154 138 112 125 103 93 318 250 147 121 123 143 105 81 122 81 73 69 58 37 353 13 43 15 300 260 274 293 347 342 21 128 135 75 79 89 89 298 216 182 208 235 254 266 260 277 287 280 278 260 244 213 189 159 126 195 232 263 224 233 259 279 284 288 293 293 293 297 298 300 301 298 295 296 296 293 290 289
94 128 135 330 356 38 41 20 61 102 156 147 130 165 152 140 292 306 141 172 164 128 86 87 142 140 138 135 98 53 334 14 22 4 198 225 268 295 310 19 52 313 95 80 56 84 92 312 251 203 231 249 265 277 269 227 260 262 267 269 256 235 209 187 220 237 244 331 263 237 238 266 275 280 285 288 293 296 295 295 295 293 294 296 295 293 290 288
55 160 135 101 273 63 58 47 95 97 100 103 99 128 143 145 179 183 189 344 42 110 100 88 229 194 175 165 137 128 251 4 332 267 219 261 285 324 334 323 15 1 60 64 7 91 113 272 253 186 255 264 268 277 266 241 253 253 250 260 258 248 231 221 237 247 243 249 261 269 273 271 275 281 285 287 292 292 289 288 288 287 288 291 290 288 286 285
67 116 50 31 128 175 164 119 122 105 96 95 94 136 159 170 191 205 184 81 15 307 161 196 250 213 175 158 121 133 197 157 325 262 212 187 252 294 328 294 320 26 71 85 359 91 123 259 244 160 290 280 254 260 266 263 267 264 247 246 249 247 242 239 247 251 246 249 262 275 277 273 274 278 281 283 285 285 285 285 284 284 285 286 284 281 282 282
115 149 171 54 66 135 80 38 102 99 77 78 120 175 170 172 187 206 179 143 153 247 189 203 231 184 159 158 134 174 215 180 172 242 179 154 250 220 222 229 166 44 55 93 347 8 102 284 347 85 310 296 270 262 272 268 266 269 262 252 249 250 249 247 250 251 249 251 258 265 270 271 272 273 275 275 275 279 285 286 284 283 284 286 285 283 284 285
114 130 146 105 71 60 249 31 93 108 98 161 171 177 189 197 191 179 183 177 159 167 183 187 175 120 100 145 183 235 232 182 185 215 178 168 194 187 199 207 151 125 96 147 157 72 153 275 4 57 335 294 296 330 311 298 287 277 269 261 252 245 241 240 244 243 236 242 256 263 265 269 274 276 274 273 278 284 286 285 286 287 289 291 291 292 293 292
123 84 111 102 82 239 156 95 74 124 187 224 176 171 197 209 187 163 149 208 140 159 182 166 142 110 92 170 222 239 224 191 202 212 184 178 189 184 195 195 157 148 151 156 137 110 155 160 38 66 281 282 306 1 333 321 314 293 267 248 216 205 216 229 253 250 229 218 250 261 257 267 283 295 293 290 289 287 284 284 285 290 296 298 295 295 295 294